Погода в Круглом

Россия / Курганская область     54°30′01″N   64°53′46″E
темп.,
°C
ветер,
м/с
пор.,
м/с
влажн.,
%
обл.,
%
осадки,
мм/ч
давл.,
гПа
погр.,
м
19 мая, ср
ср1923:00+16св7137498 2.7 1015492
02:00+14св612764 0.0 1017659
05:00+12ссв612875 0.0 1019503
08:00+15св786510 0.0 1020940
11:00+18св784485 0.0 10211600
14:00+21св67345 0.0 10211847
17:00+21св55345 0.0 10211880
20:00+17ссв35475 0.0 1021111
20 мая, чт
чт2023:00+14св365459 0.0 102295
02:00+12в335796 0.0 102341
05:00+11всв22625 0.0 102415
08:00+16зсз11485 0.0 1024339
11:00+20ссз22365 0.0 10241520
14:00+23сз22306 0.0 10221734
17:00+23зсз23295 0.0 10211695
20:00+21зюз22415 0.0 102115
21 мая, пт
пт2123:00+17зюз224519 0.0 102114
02:00+16зюз334628 0.0 102120
05:00+14зюз335117 0.0 102239
08:00+20зюз34416 0.0 1022265
11:00+25з443020 0.0 10211479
14:00+27з332669 0.0 10211890
17:00+27зюз232510 0.0 10202035
20:00+23зюз113627 0.0 102011
22 мая, сб
сб2223:00+20ю22396 0.0 102115
02:00+18ююз334090 0.0 102139
05:00+16юз33459 0.0 102233
08:00+22ююз34360 0.0 1022264
11:00+27ююз44250 0.0 10211799
14:00+29зюз45235 0.0 10202584
17:00+29юз562458 0.0 10202922
20:00+24ююз4538100 0.0 101968
23 мая, вс
вс2323:00+21ююз493593 0.0 1019137
02:00+18зюз3446100 0.0 101952
05:00+17ссз3665100 0.0 102097
08:00+21сз345124 0.0 1020305
11:00+24сз7742100 0.0 10211346
14:00+23ссз6747100 0.0 10221479
17:00+23с4548100 0.0 10221532
20:00+20зюз0056100 0.0 102311